This demonstration page uses our WeatherBlox Daily Observations layout. Learn more.

Left ArrowRight Arrow

Hourly Observations for July 30, 2022

Temp ( °F °C ) Dew Point ( °F °C ) Humidity (%) Winds ( mph kmh ) Pressure ( in mb ) Visibility ( mi km ) Precip ( " mm )
12:15 am 00:15 Clear 59 15.2 57 14 93 93 S 5 7 30.16 1021 10 16 0.00 0.00
12:35 am 00:35 Clear 59 15 57 14 94 94 S 6 9 30.16 1021 10 16 0.00 0.00
12:55 am 00:55 Clear 59 15 57 14 94 94 SSW 5 7 30.16 1021 10 16 0.00 0.00
1:15 am 01:15 Clear 59 15 57 14 94 94 S 5 7 30.16 1021 10 16 0.00 0.00
1:35 am 01:35 Clear 58 14.6 57 13.8 95 95 S 6 9 30.15 1021 10 16 0.00 0.00
1:55 am 01:55 Clear 58 14.5 57 13.7 95 95 S 5 7 30.15 1021 10 16 0.00 0.00
2:15 am 02:15 Clear 58 14.2 56 13.6 96 96 S 3 6 30.16 1021 10 16 0.00 0.00
2:35 am 02:35 Clear 58 14.3 56 13.6 96 96 S 5 7 30.15 1021 10 16 0.00 0.00
2:55 am 02:55 Clear 58 14.2 56 13.5 96 96 S 5 7 30.15 1021 10 16 0.00 0.00
3:15 am 03:15 Clear 57 14 56 13.3 96 96 S 3 6 30.16 1021 10 16 0.00 0.00
3:35 am 03:35 Clear 57 14 56 13.3 96 96 SSE 3 6 30.16 1021 10 16 0.00 0.00
3:55 am 03:55 Clear 56 13.5 55 12.9 96 96 SSE 3 6 30.15 1021 10 16 0.00 0.00
4:15 am 04:15 Clear 56 13.3 55 12.7 96 96 Calm 30.16 1021 10 16 0.00 0.00
4:35 am 04:35 Clear 56 13.2 55 12.6 96 96 S 5 7 30.15 1021 10 16 0.00 0.00
4:55 am 04:55 Clear 56 13.1 54 12.2 94 94 S 5 7 30.16 1021 10 16 0.00 0.00
5:15 am 05:15 Clear 55 12.8 54 12.1 96 96 S 3 6 30.16 1021 10 16 0.00 0.00
5:35 am 05:35 Clear 55 13 54 12.1 94 94 S 6 9 30.16 1021 10 16 0.00 0.00
5:55 am 05:55 Clear 55 12.6 53 11.8 95 95 SSE 5 7 30.16 1021 10 16 0.00 0.00
6:15 am 06:15 Clear 54 12.2 53 11.5 96 96 S 5 7 30.15 1021 10 16 0.00 0.00
6:35 am 06:35 Sunny 54 12 52 11.3 96 96 S 3 6 30.16 1021 10 16 0.00 0.00
6:55 am 06:55 Sunny 53 11.9 52 11.3 96 96 Calm 30.16 1021 10 16 0.00 0.00
7:15 am 07:15 Sunny 54 12.4 53 11.7 96 96 S 3 6 30.15 1021 10 16 0.00 0.00
7:35 am 07:35 Sunny 56 13.4 54 12.4 94 94 S 5 7 30.14 1021 10 16 0.00 0.00
7:55 am 07:55 Sunny 58 14.5 56 13.1 91 91 S 3 6 30.14 1021 10 16 0.00 0.00
8:15 am 08:15 Sunny 60 15.5 57 13.9 90 90 S 5 7 30.13 1020 10 16 0.00 0.00
8:35 am 08:35 Sunny 62 16.4 58 14.4 88 88 S 5 7 30.13 1020 10 16 0.00 0.00
8:55 am 08:55 Sunny 64 17.5 59 14.9 85 85 S 5 7 30.12 1020 10 16 0.00 0.00
9:15 am 09:15 Sunny 65 18.1 58 14.3 79 79 S 8 13 30.11 1020 10 16 0.00 0.00
9:35 am 09:35 Sunny 65 18.6 58 14.4 77 77 S 9 15 30.10 1019 10 16 0.00 0.00
9:55 am 09:55 Sunny 67 19.6 60 15.6 78 78 SSE 8 13 30.09 1019 10 16 0.00 0.00
10:15 am 10:15 Sunny 69 20.3 58 14.4 69 69 S 13 20 30.08 1019 10 16 0.00 0.00
10:35 am 10:35 Sunny 70 20.9 56 13.6 63 63 S 13 20 30.07 1018 10 16 0.00 0.00
10:55 am 10:55 Sunny 70 21.3 56 13.6 62 62 S 14 22 30.07 1018 10 16 0.00 0.00
11:15 am 11:15 Sunny 71 21.9 58 14.2 62 62 S 13 20 30.06 1018 10 16 0.00 0.00
11:35 am 11:35 Sunny 72 22.1 58 14.4 62 62 S 14 22 30.06 1018 10 16 0.00 0.00
11:55 am 11:55 Sunny 73 22.5 57 14.1 59 59 SSE 12 19 30.06 1018 10 16 0.00 0.00
12:15 pm 12:15 Sunny 73 23 58 14.6 59 59 S 13 20 30.04 1017 10 16 0.00 0.00
12:35 pm 12:35 Sunny 74 23.3 59 14.9 59 59 S 9 15 30.03 1017 10 16 0.00 0.00
12:55 pm 12:55 Sunny 74 23.4 58 14.7 58 58 S 7 11 30.03 1017 10 16 0.00 0.00
1:15 pm 13:15 Sunny 75 23.7 58 14.6 57 57 SSE 12 19 30.03 1017 10 16 0.00 0.00
1:35 pm 13:35 Sunny 75 24 59 15 57 57 S 9 15 30.01 1016 10 16 0.00 0.00
1:55 pm 13:55 Sunny 76 24.4 58 14.5 54 54 S 7 11 30.01 1016 10 16 0.00 0.00
2:15 pm 14:15 Sunny 76 24.5 60 15.4 57 57 SSE 8 13 30.00 1016 10 16 0.00 0.00
2:35 pm 14:35 Sunny 77 24.8 60 15.5 56 56 SSE 8 13 29.99 1015 10 16 0.00 0.00
2:55 pm 14:55 Sunny 77 25 60 15.5 56 56 SSE 7 11 29.98 1015 10 16 0.00 0.00
3:15 pm 15:15 Sunny 78 25.3 60 15.3 54 54 S 7 11 29.97 1015 10 16 0.00 0.00
3:35 pm 15:35 Sunny 78 25.3 60 15.5 55 55 SSE 6 9 29.96 1015 10 16 0.00 0.00
3:55 pm 15:55 Sunny 78 25.6 61 16 55 55 SSW 10 17 29.96 1015 10 16 0.00 0.00
4:15 pm 16:15 Sunny 78 25.7 61 15.9 55 55 SSE 12 19 29.95 1014 10 16 0.00 0.00
4:35 pm 16:35 Sunny 79 25.9 59 15.2 52 52 S 12 19 29.95 1014 10 16 0.00 0.00
4:55 pm 16:55 Sunny 78 25.8 59 15.1 52 52 SSE 9 15 29.94 1014 10 16 0.00 0.00
5:15 pm 17:15 Sunny 78 25.8 59 15.2 52 52 SSE 12 19 29.94 1014 10 16 0.00 0.00
5:35 pm 17:35 Sunny 78 25.8 58 14.2 49 49 SSE 14 22 29.93 1014 10 16 0.00 0.00
5:55 pm 17:55 Sunny 78 25.8 58 14.7 50 50 SSE 10 17 29.93 1014 10 16 0.00 0.00
6:15 pm 18:15 Sunny 78 25.5 58 14.5 51 51 SSE 10 17 29.93 1014 10 16 0.00 0.00
6:35 pm 18:35 Sunny 78 25.5 59 14.8 52 52 SSE 6 9 29.93 1014 10 16 0.00 0.00
6:55 pm 18:55 Sunny 77 25.2 59 15.1 54 54 SSE 8 13 29.93 1014 10 16 0.00 0.00
7:15 pm 19:15 Sunny 77 25 60 15.8 57 57 SSE 7 11 29.94 1014 10 16 0.00 0.00
7:35 pm 19:35 Sunny 76 24.3 61 16.3 61 61 SSE 6 9 29.94 1014 10 16 0.00 0.00
7:55 pm 19:55 Sunny 74 23.5 62 16.7 66 66 SE 6 9 29.95 1014 10 16 0.00 0.00
8:15 pm 20:15 Sunny 72 22.3 63 17.2 73 73 SE 7 11 29.95 1014 10 16 0.00 0.00
8:35 pm 20:35 Sunny 70 21 64 17.5 81 81 SE 6 9 29.96 1015 10 16 0.00 0.00
8:55 pm 20:55 Clear 68 19.9 63 17.3 85 85 SE 6 9 29.98 1015 10 16 0.00 0.00
9:15 pm 21:15 Clear 66 19 62 16.7 87 87 SE 6 9 29.99 1015 10 16 0.00 0.00
9:35 pm 21:35 Clear 65 18.6 62 16.5 88 88 SE 5 7 29.99 1016 10 16 0.00 0.00
9:55 pm 21:55 Clear 65 18.2 61 16.2 88 88 SSE 7 11 30.00 1016 10 16 0.00 0.00
10:15 pm 22:15 Clear 64 18 61 16 88 88 SSE 6 9 30.00 1016 10 16 0.00 0.00
10:35 pm 22:35 Clear 63 17.3 60 15.6 90 90 SSE 6 9 30.01 1016 10 16 0.00 0.00
10:55 pm 22:55 Clear 63 17.3 60 15.5 89 89 SSE 7 11 30.02 1017 10 16 0.00 0.00
11:15 pm 23:15 Clear 63 17.1 60 15.3 89 89 SSE 6 9 30.02 1017 10 16 0.00 0.00
11:35 pm 23:35 Clear 63 17 59 15.1 89 89 S 6 9 30.02 1017 10 16 0.00 0.00
11:55 pm 23:55 Clear 62 16.8 59 15 89 89 S 5 7 30.02 1017 10 16 0.00 0.00

Powered by AerisWeather